ORBCOMM FM25 [-]

Last updated on July 6, 2021, 3:36 p.m. UTC

1 25479U 98053E   21186.85421351  .00000062  00000-0  73190-4 0  9991
2 25479  45.0075 229.5959 0006117 250.4374 109.5812 14.33120872190592
UTC
Height (km)
Latitude
Longitude
Inclination
Orbital Period
UTC large
Height (km)
Speed (km/s)
/
Latitude / Longitude
Inclination (degrees)
Orbital Period (minutes)
Azimuth
Elevation
Range (km)
Doppler Factor
iOS Compass Heading
iOS Angle